ONEWEB-0094, 45450

Orbit data source: Space-Track

ONEWEB-0094, 45450 is a payload satellite owned by One Web (UK) in LEO that was launched on Sat, 21 Mar 2020 UTC via a SOYUZ-2-1B launch vehicle from the Tyuratam Missile And Space Complex (TTMTR). Payload-class satellites include a variety of spacecraft equipped with specific instruments for various scientific and technological missions. These include communications satellites like Starlink; space stations such as the ISS; scientific satellites like the Hubble; Earth observation satellites from companies like Planet Labs, Umbra, and HawkEye 360; GPS; miniature CubeSats for education and research; and military/defense satellites.

Loading next visibility...
Identifier
45450, 2020-020AC
Orbit
LEO
Last TLE update
8 hours ago
Origin
Manufacturer
One Web
Mission
Operational Commercial Communications
Bus & Motor
ARROW, Unknown motor
Mass
148 kg wet, ~140 kg dry
Launch date (UTC)
2020-03-21 (5 years ago)
Launch vehicle
SOYUZ-2-1B
Launch site
Tyuratam Missile And Space Complex (TTMTR)
Object type
Payload
Rocket body
Debris
Shape & HBR
Trap Box + 2 Pan, 5 m
Radar Cross Section
2.957 m², Medium (>0.1 m² and < 1m²)

Expand to show TLE details & history

TLE from 8 hours ago
0 ONEWEB-0094
1 45450U 20020AC  25189.97383775  .00000202  00000-0  48808-3 0  9991
2 45450  87.9054  74.1592 0001808  81.7261 278.4076 13.17649594261117
Epoch: 2025-07-08T23:22Z
TLE epoch observation values (Epoch: 2025-07-08T23:22:19.581Z)
Latitude
0.00002°
Longitude
156.41648°
Altitude
1,196.409 km
Speed
7.256 km/s
True Right ascension
04h 56m 38s
True Declination
0° 00' 00"
Sunlit
Object was in daylight at epoch
Visualization orbit readout
Latitude
-53.17614°
Longitude
-20.86822°
Altitude
1,215.613 km
Speed
7.245 km/s
Apparent Right ascension
12h 13m 01s
Apparent Declination
-70° 58' 50"
Sunlit
Object is in full shadow
Visualization observer readout
Local Sidereal Time
20:00:00
Azimuth
204.759° SW
Elevation
-45.983°
Doppler factor
1
Orbital elements
Apogee altitude
1,192.188 km
Perigee altitude
1,189.451 km
Semi-major axis
7,568.957 km
Eccentricity
0.00018
Inclination
87.9054°
RAAN
74.1592°
Arg. of periapsis
81.7261°
True anomaly
Unknown
Mean anomaly
278.4076°
Eccentric anomaly
Unknown
Mean motion
3.29601 °/min
Orbital period
109.22 mins
BSTAR
0.00048808
Loading maneuver chart data...
Loading SW <> Apogee altitude chart data...
Loading historical data...
Loading historical data...
Loading historical data...
Loading historical data...
Loading historical data...
Loading historical data...
Loading historical data...

ONEWEB-0094 Visibility forecast

Observer location: undefined°, undefined°

Span
Click to sort rows by Start time (UTC) header in descending order
Start Az.
Max El. time (UTC)
Max El. Az.
Max El.
End time (UTC)
End Az.
12 mins2025-07-09 15:52:26.824Z145.186° SSE2025-07-09 15:58:26.824Z87.695° E31.8°2025-07-09 16:04:26.824Z19.539° NNE
11 mins2025-07-09 17:43:26.824Z222.068° SW2025-07-09 17:48:26.824Z284.085° WNW30.953°2025-07-09 17:54:26.824Z343.353° N
10 mins2025-07-10 03:20:26.824Z32.005° NE2025-07-10 03:24:26.824Z75.955° E25.889°2025-07-10 03:30:26.824Z135.39° SSE
12 mins2025-07-10 05:08:26.824Z345.401° N2025-07-10 05:14:26.824Z271.629° WNW37.036°2025-07-10 05:20:26.824Z206.743° SW
|